User: anonymous   Login
Location: Allos
(44.2333°N, 6.6333°E)
Time: 22:05:41
(UTC+00:00)
Language:

SKYMED 3 - Orbit

View from above orbital plane
View from above orbital plane
View from above satellite
View from above satellite

Ground track
Ground track

The orbit data is extracted from the following two-line orbital elements,

1 33412U 08054A   21059.56209444  .00000205  00000-0  32302-4 0  9992
2 33412  97.8851 245.0001 0001555  87.3420 272.7971 14.82151577667976
Epoch (UTC): 28 February 2021 13:29:24
Eccentricity: 0.0001555
inclination: 97.8851°
perigee height: 621 km
apogee height: 623 km
right ascension of ascending node: 245.0001°
argument of perigee: 87.3420°
revolutions per day: 14.82151577
mean anomaly at epoch: 272.7971°
orbit number at epoch: 66797

The dashed part of the orbit path shows where the satellite is in the earth's shadow,  

DLR